Regional Weather Roundup
Issued by NWS

Home | Current Version | Previous Version | Graphics & Text | Print | Product List | Glossary On
Versions: 1 2 3 4 5 6 7 8 9 10 11 12 13 14 15 16 17 18 19 20 21 22 23 24 25 26 27 28 29 30 31 32 33 34 35 36 37 38 39 40 41 42 43 44 45 46 47 48 49 50
000
ASUS43 KMKX 030000
RWRWI

WISCONSIN REGIONAL WEATHER ROUNDUP
NATIONAL WEATHER SERVICE MILWAUKEE/SULLIVAN WI
600 PM CST FRI DEC 02 2016

NOTE: "FAIR" INDICATES FEW OR NO CLOUDS BELOW 12,000 FEET WITH NO
SIGNIFICANT WEATHER AND/OR OBSTRUCTIONS TO VISIBILITY.

WIZ001-002-006>008-014>016-023>028-030100-
NORTHWEST WISCONSIN

CITY           SKY/WX    TMP DP  RH WIND       PRES   REMARKS
SUPERIOR ARPT  CLOUDY    30  25  79 S5        30.25R WCI  25
ASHLAND        CLOUDY    30  24  78 SW5       30.25R WCI  25
6HR MIN TEMP:  30; 6HR MAX TEMP:  31;

HAYWARD        CLOUDY    28  22  78 W6        30.25R WCI  22
6HR MIN TEMP:  28; 6HR MAX TEMP:  29;

SIREN          CLOUDY    30  23  75 CALM      30.27R
CUMBERLAND     CLOUDY    30  23  74 NW5       30.25R WCI  25
RICE LAKE      CLOUDY    30  24  78 W3        30.28R
6HR MIN TEMP:  30; 6HR MAX TEMP:  31;

CHETEK         CLOUDY    30  24  77 CALM      30.26R
LADYSMITH      CLOUDY    30  24  77 W7        30.26R WCI  23
6HR MIN TEMP:  30; 6HR MAX TEMP:  32;

EAU CLAIRE     NOT AVBL
MENOMONIE      CLOUDY    32  25  73 W8        30.28R WCI  25
6HR MIN TEMP:  32; 6HR MAX TEMP:  33;

NEW RICHMOND   CLOUDY    31  25  78 W5        30.28R WCI  26
OSCEOLA        CLOUDY    31  25  79 W5        30.31R WCI  26
$$

WIZ003>005-009-010-017-018-030100-
NORTH CENTRAL WISCONSIN

CITY           SKY/WX    TMP DP  RH WIND       PRES   REMARKS
MANITOWISH WTR CLOUDY    28  28 100 W7        30.18R WCI  21
ARBOR VITAE    CLOUDY    32  28  87 CALM      30.18R
WOODRUFF       CLOUDY    32  28  87 CALM      30.18R
RHINELANDER    CLOUDY    30  28  92 W3        30.19R
6HR MIN TEMP:  30; 6HR MAX TEMP:  32;

EAGLE RIVER    CLOUDY    30  26  87 CALM      30.17R
LAND O LAKES   CLOUDY    30  28  92 W5        30.18S WCI  25
PHILLIPS       CLOUDY    28  26  90 CALM      30.21R
6HR MIN TEMP:  28; 6HR MAX TEMP:  29;

TOMAHAWK       CLOUDY    29  25  85 W3        30.20R
MEDFORD        CLOUDY    29  23  78 W5        30.21R WCI  24
MERRILL        CLOUDY    31  26  80 CALM      30.22R
6HR MIN TEMP:  31; 6HR MAX TEMP:  32;

$$

WIZ029-030-035-036-043>047-030100-
CENTRAL WISCONSIN

CITY           SKY/WX    TMP DP  RH WIND       PRES   REMARKS
WAUSAU         CLOUDY    31  24  75 W8        30.21R WCI  23
6HR MIN TEMP:  31; 6HR MAX TEMP:  32;

MOSINEE        CLOUDY    30  27  86 W8        30.23R WCI  23
MARSHFIELD     CLOUDY    30  22  72 NW6       30.23R WCI  24
6HR MIN TEMP:  29; 6HR MAX TEMP:  31;

STEVENS POINT  CLOUDY    30  23  74 W8        30.24R WCI  22
WAUPACA        CLOUDY    34  26  71 W8        30.25R WCI  27
6HR MIN TEMP:  34; 6HR MAX TEMP:  36;

WAUTOMA        CLOUDY    32  25  75 W7        30.27R WCI  26
6HR MIN TEMP:  32; 6HR MAX TEMP:  33;

WISC RAPIDS    CLOUDY    31  23  72 W7        30.27R WCI  24
6HR MIN TEMP:  31; 6HR MAX TEMP:  33;

CAMP DOUGLAS   NOT AVBL
$$

WIZ011>013-019>022-031-037>040-048>050-030100-
NORTHEAST WISCONSIN

CITY           SKY/WX    TMP DP  RH WIND       PRES   REMARKS
ANTIGO         CLOUDY    31  26  81 NW8       30.18R WCI  23
SHAWANO        CLOUDY    36  27  70 SW6       30.22R WCI  31
6HR MIN TEMP:  36; 6HR MAX TEMP:  37;

OCONTO         CLOUDY    35  28  74 W5        30.20R WCI  31
STURGEON BAY   CLOUDY    36  29  75 W8        30.20R WCI  30
6HR MIN TEMP:  35; 6HR MAX TEMP:  37;

GREEN BAY      CLOUDY    36  28  73 W8        30.23R WCI  30
6HR MIN TEMP:  36; 6HR MAX TEMP:  37;

MANITOWOC      NOT AVBL
APPLETON       CLOUDY    32  23  69 W6        30.22R WCI  26
CLINTONVILLE   CLOUDY    34  27  75 W5        30.23R WCI  30
OSHKOSH        CLOUDY    32  24  72 W7        30.24R WCI  26
6HR MIN TEMP:  32; 6HR MAX TEMP:  34;

$$

WIZ032>034-041-042-053>061-030100-
SOUTHWEST WISCONSIN

CITY           SKY/WX    TMP DP  RH WIND       PRES   REMARKS
LA CROSSE      CLOUDY    35  23  61 W7        30.29R WCI  29
6HR MIN TEMP:  34; 6HR MAX TEMP:  35;

SPARTA         CLOUDY    32  24  72 CALM      30.28R
VIROQUA        CLOUDY    30  25  81 W6        30.26S WCI  24
6HR MIN TEMP:  30; 6HR MAX TEMP:  31;

BOSCOBEL       CLOUDY    34  23  64 W5        30.29S WCI  30
6HR MIN TEMP:  34; 6HR MAX TEMP:  36;

PRAIRIE DU CHI CLOUDY    32  22  64 W12       30.29S WCI  23
PLATTEVILLE    CLOUDY    32  27  80 NW9       30.25F WCI  24
$$

WIZ056-057-062-063-064-067-068-030100-
SOUTH CENTRAL WISCONSIN

CITY           SKY/WX    TMP DP  RH WIND       PRES   REMARKS
REEDSBURG      CLOUDY    31  23  71 W6        30.27S WCI  25
6HR MIN TEMP:  31; 6HR MAX TEMP:  32;

BARABOO/DELLS  CLOUDY    31  23  72 W5        30.27R WCI  26
LONE ROCK      NOT AVBL
MINERAL POINT  CLOUDY    32  27  80 NW7       30.24F WCI  26
MADISON        CLOUDY    32  22  66 NW6       30.26S WCI  26
6HR MIN TEMP:  32; 6HR MAX TEMP:  33;

MIDDLETON      CLOUDY    33  25  73 NW7       30.27R WCI  26
WATERTOWN      CLOUDY    32  24  73 W7        30.26R WCI  26
MONROE         CLOUDY    32  27  80 NW5       30.24F WCI  27
JANESVILLE     CLOUDY    34  25  69 N6        30.25S WCI  29
$$

WIZ051-052-058>065-066-070>072-030100-
SOUTHEAST WISCONSIN

CITY           SKY/WX    TMP DP  RH WIND       PRES   REMARKS
MILWAUKEE      CLOUDY    35  23  61 W8        30.26R WCI  29
6HR MIN TEMP:  35; 6HR MAX TEMP:  37;

WAUKESHA       CLOUDY    30  23  74 NW8       30.27R WCI  23
MILWAUKEE/TIMM CLOUDY    34  21  60 NW10      30.27R WCI  26
RACINE         CLOUDY    34  22  61 NW5       30.27R WCI  30
6HR MIN TEMP:  34; 6HR MAX TEMP:  36;

BURLINGTON     CLOUDY    33  24  71 CALM      30.26R
KENOSHA        CLOUDY    34  24  67 NW5       30.26R WCI  30
6HR MIN TEMP:  34; 6HR MAX TEMP:  36;

FOND DU LAC    CLOUDY    33  23  66 W9        30.25R WCI  25
6HR MIN TEMP:  32; 6HR MAX TEMP:  34;

SHEBOYGAN      CLOUDY    33  25  72 NW10      30.24R WCI  25
6HR MIN TEMP:  33; 6HR MAX TEMP:  35;

WEST BEND      CLOUDY    32  27  80 W8        30.24R WCI  25
JUNEAU         CLOUDY    31  23  72 W5        30.26R WCI  26
$$

LSZ147-162-030100-
LAKE SUPERIOR

STATION/POSITION TIME  TEMP    WIND        PRES    WAVE
                       AIR SEA DIR/SP/G            HT/PER
                 (UTC) (F)     (DEG/KT/KT) (MB)    (FT/S)
DEVILS ISLAND    2300   33     240/ 11/ 13 1024.1S
PORT WING        2330   31     210/  5/  7 1024.0S
SAXON HARBOR     2340   32     260/  4/  6 1023.7S
$$

LMZ867-665-643>646-030100-
LAKE MICHIGAN

STATION/POSITION TIME  TEMP    WIND        PRES    WAVE
                       AIR SEA DIR/SP/G            HT/PER
                 (UTC) (F)     (DEG/KT/KT) (MB)    (FT/S)
CHAMBERS ISLAND  2340   38     290/  5/  8 1021.7S
NORTHPORT PIER   2340   38     290/  8/ 15 1021.7S
SISTER BAY       2238   38     320/ 15/ 17   N/A
ALGOMA LAKESHORE 2206          310/  4/  8   N/A
SHEBOYGAN LAKESH 2300   35     270/  7/  8 1024.0R
PORT WASHINGTON  2340   34     290/  4/  7 1025.1R
MILWAUKEE LAKESH 2300   35     310/  8/ 11   N/A
S MID LAKE BUOY  2250   38 49  300/ 10/ 14 1023.6R   3/ 5
KENOSHA   LAKESH 2300   35     300/  8/ 10 1024.4
$$

TC  - TEMPERATURE IN CELSIUS
VSB - VISIBILITY IN STATUTE MILES
WCI - WIND CHILL INDEX
HX  - HEAT INDEX





USA.gov is the U.S. government's official web portal to all federal, state and local government web resources and services.